Weather observations for the past three days for
Custer, Custer County Airport
Imperial (Metric)
Date Time (mdt) Wind (mph) Vis. (mi.) Weather Sky Cond. Temperature (ºF) Relative Humidity Wind Chill (°F) Heat Index (°F) Pressure Precipitation (in)
Air Dwpt 6 hour altimeter (in) sea level (mb) 1 hr 3 hr 6 hr
Max. Min.
18 15:53 W 17 G 28 10.00 A Few Clouds FEW065 60.1 30 32% 29.97 1010.2
18 14:53 W 12 G 28 10.00 Partly Cloudy SCT060 59 32 36% 29.96 1009.5
18 13:53 W 20 G 31 10.00 Partly Cloudy SCT055 57 32 39% 29.95 1008.9
18 12:53 W 13 G 24 10.00 Partly Cloudy SCT045 SCT120 53.1 32 45% 29.94 1009.1
18 11:53 W 20 G 30 10.00 Mostly Cloudy BKN120 52 33.1 53.1 48 49% 29.91 1008.4
18 10:53 W 15 G 25 10.00 Mostly Cloudy FEW031 BKN041 BKN050 52 34 50% 29.88 1007.2
18 09:53 W 9 10.00 A Few Clouds FEW032 FEW120 50 37 61% 47 29.88 1007.2
18 08:53 NW 3 10.00 A Few Clouds FEW030 50 39 66% 29.86 1006.6
18 07:53 Vrbl 7 G 18 10.00 Fair CLR 50 39.9 68% 48 29.83 1005.5
18 06:53 W 8 10.00 Fair CLR 48.9 41 74% 46 29.81 1005.0
18 05:53 N 7 10.00 A Few Clouds FEW055 48 41 57.9 48 77% 45 29.78 1004.6
18 04:53 Vrbl 6 G 23 10.00 Partly Cloudy SCT017 50 44.1 80% 48 29.75 1003.1
18 03:53 W 13 G 21 10.00 Overcast BKN017 BKN024 OVC036 54 48 80% 29.72 1001.6
18 02:53 NW 8 G 21 10.00 Mostly Cloudy SCT019 BKN033 BKN048 57 51.1 81% 29.67 999.6
18 01:53 Vrbl 7 10.00 Overcast BKN016 OVC021 57.9 52 81% 29.64 998.6
18 00:53 N 6 10.00 Overcast FEW010 BKN013 OVC019 57.9 53.1 84% 29.58 996.9
17 23:53 NE 9 10.00 Mostly Cloudy BKN034 57.9 55 61 57 90% 29.55 995.9
17 22:53 N 5 10.00 Fair CLR 59 55 87% 29.51 994.7
17 21:53 Calm 10.00 Overcast FEW049 BKN100 OVC120 60.1 57 90% 29.54 995.4
17 20:53 NE 6 4.00 Fog/Mist FEW002 59 57.9 96% 29.55 996.1
17 19:53 N 3 0.25 Fog VV002 60.1 59 96% 29.55 996.1
17 18:53 Vrbl 5 4.00 Fog/Mist OVC003 59 57 93% 29.56 996.5
17 17:53 E 8 0.25 Fog VV002 55.9 55 57 50 97% 29.57 997.3
17 16:53 E 9 0.50 Fog OVC002 55.9 54 93% 29.6 998.3
17 15:53 E 8 0.25 Fog OVC002 55.9 55 97% 29.63 999.3
17 14:53 E 8 G 17 0.50 Fog OVC002 55 53.1 93% 29.65 999.6
17 13:53 E 5 1.00 Fog/Mist OVC002 53.1 51.1 93% 29.69 1001.2
17 12:53 SE 3 1.00 Fog/Mist OVC002 52 50 93% 29.72 1002.5
17 11:53 E 5 1.25 Fog/Mist OVC003 50 48.9 50 45 96% 49 29.75 1003.6
17 10:53 E 9 1.00 Fog/Mist OVC002 48.9 46.9 93% 45 29.76 1004.1
17 09:53 E 7 0.15 Fog VV002 46.9 45 93% 44 29.78 1004.6
17 08:53 E 15 G 23 1.50 Fog/Mist OVC003 46.9 44.1 90% 41 29.81 1005.7
17 07:53 E 13 10.00 Overcast OVC017 48 39.9 74% 43 29.82 1005.8
17 06:53 E 18 G 28 10.00 A Few Clouds FEW015 48.9 37 64% 43 29.81 1005.0
17 05:53 N 7 10.00 Partly Cloudy SCT085 45 37.9 52 44.1 77% 42 29.85 1006.5 0.14
17 04:53 NE 12 10.00 Overcast FEW060 SCT070 OVC110 45 39 80% 40 29.85 1006.5 0.07
17 03:53 NE 10 5.00 Rain SCT070 BKN090 OVC110 46 39 77% 42 29.85 1006.2 0.07
17 02:53 NE 8 10.00 Overcast OVC085 52 33.1 49% 29.86 1005.8
17 01:53 E 12 10.00 Mostly Cloudy BKN100 52 33.1 49% 29.87 1006.2
17 00:53 E 14 G 24 10.00 Mostly Cloudy BKN110 52 33.1 49% 29.89 1007.0
16 23:53 NE 8 10.00 Fair CLR 51.1 33.1 63 51.1 50% 29.87 1006.5
16 22:53 NE 7 10.00 Fair CLR 52 35.1 53% 29.9 1007.5
16 21:53 NE 12 10.00 Fair CLR 54 34 47% 29.9 1007.6
16 20:53 NE 12 10.00 Fair CLR 55 34 45% 29.91 1007.9
16 19:53 E 8 10.00 Fair CLR 57.9 34 41% 29.92 1008.1
16 18:53 E 12 10.00 Fair CLR 61 35.1 38% 29.92 1008.1
16 17:53 E 8 10.00 Fair CLR 62.1 35.1 68 61 37% 29.9 1007.7
16 16:53 SE 8 10.00 Fair CLR 63 37.9 40% 29.9 1007.1
16 15:53 SE 6 10.00 Fair CLR 66 41 40% 29.89 1006.6
16 14:53 Vrbl 6 10.00 Fair CLR 64.9 41 42% 29.9 1007.0
16 13:53 S 9 10.00 Fair CLR 64.9 43 45% 29.91 1007.0
16 12:53 SW 8 10.00 Fair CLR 63 43 48% 29.91 1006.8
16 11:53 SE 10 G 17 10.00 Fair CLR 62.1 42.1 62.1 48 48% 29.92 1007.5
16 10:53 S 8 10.00 A Few Clouds FEW120 61 43 52% 29.91 1007.0
16 09:53 S 5 10.00 Fair CLR 60.1 43 53% 29.91 1006.8
16 08:53 Calm 10.00 Fair CLR 57.9 33.1 39% 29.92 1007.2
16 07:53 NE 5 10.00 Fair CLR 55.9 32 40% 29.92 1007.2
16 06:53 Calm 10.00 Fair CLR 53.1 28 38% 29.92 1007.5
16 05:53 W 5 10.00 Fair CLR 48.9 28.9 64.9 48.9 46% 48 29.9 1006.0
16 04:53 NW 10 G 22 10.00 Fair CLR 54 30.9 42% 29.87 1004.5
16 03:53 NE 3 10.00 Fair CLR 54 39 57% 29.84 1003.1
16 02:53 NW 7 10.00 Fair CLR 54 41 62% 29.81 1002.0
16 01:53 NW 12 G 23 10.00 Fair CLR 57 45 64% 29.79 1001.3
16 00:53 N 7 10.00 Fair CLR 62.1 35.1 37% 29.77 1000.3
15 23:53 SW 3 10.00 Fair CLR 59 42.1 80.1 59 54% 29.75 999.8
15 22:53 S 6 10.00 Fair CLR 62.1 44.1 52% 29.74 999.4
15 21:53 SW 6 10.00 Fair CLR 64.9 45 49% 29.74 999.1
15 20:53 SW 7 10.00 Fair CLR 68 46 45% 29.73 998.8
15 19:53 SW 5 10.00 Fair CLR 68 50 53% 29.72 999.0
15 18:53 S 8 G 17 10.00 Light Rain OVC110 66 48.9 54% 29.75 1001.1
15 17:53 S 8 10.00 A Few Clouds FEW110 80.1 41 86 73.9 25% 79 29.75 1000.3
15 16:53 SW 6 G 22 10.00 A Few Clouds FEW110 80.1 36 20% 79 29.76 1000.2
Date Time (mdt) Wind (mph) Vis. (mi.) Weather Sky Cond. Air Dwpt Max. Min. Relative Humidity Wind Chill (°F) Heat Index (°F) altimeter (in) sea level (mb) 1 hr 3 hr 6 hr
6 hour
Temperature (ºF) Pressure Precipitation (in)